Location: Newark
(44.2003°N, 3.2583°E)
Time: 13:56:32
(UTC+00:00)

SR - Pass Details

Date: 23 October 2019
Orbit: 574 x 882 km, 66.7° (Epoch: 14 November)

Event Time Altitude Azimuth Distance (km) Brightness Sun altitude
Rises 06:17:02 0° 325° (NW) 3,461 ? 0.1°
Reaches altitude 10° 06:19:32 10° 323° (NW) 2,536 ? 0.6°
Maximum altitude 06:25:23 64° 243° (WSW) 975 ? 1.6°
Drops below altitude 10° 06:31:10 10° 163° (SSE) 2,503 ? 2.5°
Sets 06:33:38 0° 161° (SSE) 3,412 ? 3.0°
